Temperature
14 14 14 14 14 14 14 14 14 13 12 12 11 11 11 11 11 11 11 11 11 11 11 11 11 11 11 11 10 10 10 10 10 10 10 9 9 9
14 14 14 14 14 14 14 14 14 14 13 12 12 11 11 11 11 11 11 11 11 11 10 11 11 11 11 10 10 10 10 10 9 9 9 9 9 9
14 14 14 14 14 14 14 14 14 13 13 12 12 11 11 11 11 11 11 11 10 10 10 10 10 10 10 10 10 10 10 10 9 9 9 9 9 9
14 14 14 14 14 14 14 14 13 13 13 13 12 12 11 11 11 11 11 11 10 10 10 10 10 10 10 10 10 10 10 9 9 9 9 9 8 8
14 14 14 14 14 14 14 14 13 13 13 13 12 12 11 11 11 11 11 10 10 10 10 10 10 10 9 9 9 9 9 9 9 9 9 8 8 8
14 14 14 14 14 14 14 13 13 13 13 13 12 12 11 11 11 11 10 10 10 10 10 10 10 9 9 9 9 9 9 9 9 8 8 8 8 8
14 14 14 14 14 14 13 13 13 13 13 12 12 12 11 11 11 11 10 10 10 10 10 10 9 9 9 9 9 9 8 8 8 8 8 8 7 7
14 14 14 13 13 13 13 13 13 13 13 13 12 12 12 11 11 11 10 10 10 10 9 9 9 9 9 9 8 8 8 8 8 8 8 7 7 7
14 14 14 13 13 13 13 13 13 13 12 12 12 12 12 11 11 11 10 10 10 10 9 9 9 9 9 8 8 8 8 8 8 7 7 7 7 7
14 13 13 13 13 13 13 13 13 13 12 12 12 12 12 11 11 11 10 10 10 9 9 9 9 9 8 8 8 8 8 7 7 7 7 7 7 7
13 13 13 13 13 13 13 13 13 13 12 12 12 12 11 11 11 10 10 10 10 9 9 9 9 9 8 8 8 8 8 7 7 7 7 7 6 6
13 13 13 13 13 13 13 13 13 13 12 12 12 12 11 11 11 10 10 10 10 9 9 9 9 8 8 8 8 8 7 7 7 7 6 6 6 6
13 13 13 13 12 12 12 12 12 12 12 12 12 11 11 11 11 10 10 10 9 9 9 9 8 8 8 8 8 7 7 7 7 6 6 6 6 6
13 13 13 12 12 12 12 12 12 12 12 11 11 11 11 11 10 10 10 10 9 9 9 8 8 8 8 8 7 7 7 7 6 6 6 6 5 5
12 12 12 12 12 12 12 12 11 11 11 11 11 11 11 10 10 10 10 9 9 9 9 8 8 8 8 7 7 7 7 6 6 6 6 5 5 5
12 12 12 12 11 11 11 11 11 11 11 11 10 10 10 10 9 9 9 9 9 9 8 8 8 8 7 7 7 7 6 6 6 5 5 5 5 4
12 12 12 12 11 11 11 11 11 10 10 10 10 10 10 9 9 9 9 9 9 8 8 8 7 7 7 7 6 6 6 6 5 5 5 5 4 4
12 11 12 11 11 11 11 10 10 10 10 10 10 10 9 9 9 9 8 8 8 8 8 7 7 7 6 6 6 6 5 5 5 4 4 4 4 4
11 11 11 11 11 11 11 10 10 10 10 9 9 9 9 9 8 8 8 8 7 7 7 7 7 6 6 6 5 5 5 5 4 4 4 4 4 3
11 11 11 11 11 10 10 10 10 10 9 9 9 9 8 8 8 8 7 7 7 7 6 6 6 6 5 5 5 5 4 4 4 4 4 3 3 3
11 11 11 11 10 10 10 10 10 9 9 9 9 8 8 8 7 7 7 7 6 6 6 6 5 5 5 4 4 4 4 4 3 3 3 3 3 3
11 11 11 11 10 10 10 10 9 9 9 9 8 8 8 7 7 7 7 6 6 6 5 5 5 4 4 4 4 4 3 3 3 3 3 2 2 2
11 11 11 10 10 10 10 9 9 9 8 8 8 8 7 7 7 6 6 6 5 5 5 5 4 4 4 3 3 3 3 3 3 3 2 2 2 1
Wind_Speed
3 3 2 2 3 3 4 4 5 3 1 1 1 1 2 4 6 7 8 10 11 12 13 13 14 14 15 16 16 17 17 18 18 18 18 18 18 18
3 4 3 2 3 3 3 3 3 4 3 1 1 0 2 4 5 6 7 8 10 10 11 12 12 13 14 14 15 15 15 16 16 16 16 17 17 17
3 4 3 3 3 3 3 3 3 4 4 1 1 1 2 3 4 6 6 6 7 9 10 10 11 12 12 13 13 13 14 14 14 14 15 15 16 16
4 4 3 4 4 3 3 4 3 3 4 4 1 1 2 2 3 4 4 5 5 7 8 9 9 10 10 11 11 11 12 12 13 13 13 14 14 14
5 5 4 5 4 3 4 4 3 4 3 5 3 1 1 2 3 3 4 3 4 4 6 6 7 8 8 9 9 9 10 10 11 12 12 12 13 13
4 4 5 5 5 5 4 5 5 5 5 5 3 2 1 2 2 2 1 2 2 3 3 4 5 6 7 7 7 8 8 9 9 10 11 11 11 12
3 4 4 5 7 6 5 5 6 5 5 4 3 2 2 2 2 2 2 1 2 1 2 3 3 4 4 5 5 6 7 7 7 8 8 9 9 10
4 3 3 4 5 6 7 8 9 7 6 5 3 4 3 3 3 3 3 2 1 0 1 1 2 2 2 3 3 4 5 5 6 6 6 7 7 8
4 4 3 3 4 4 4 6 6 7 8 7 6 6 5 6 5 4 3 3 2 2 2 0 1 1 2 3 3 3 3 4 4 4 5 6 6 6
4 4 4 3 4 5 5 4 2 2 4 5 6 6 5 6 6 5 4 3 1 1 2 1 0 1 2 3 3 2 2 2 3 4 4 5 5 6
3 4 4 4 6 8 6 5 2 1 2 4 5 4 5 8 9 6 4 3 1 1 1 2 1 0 1 2 2 2 2 2 2 2 3 3 4 5
2 3 5 6 7 9 6 6 4 2 2 3 3 3 4 6 8 6 5 4 2 2 2 3 2 1 0 1 2 2 2 2 2 2 2 2 3 4
3 2 3 7 7 8 7 5 6 5 3 3 3 3 3 3 3 3 4 4 4 3 4 4 2 2 2 1 1 2 1 1 2 2 3 3 2 2
4 4 4 7 8 8 6 6 7 6 4 4 3 2 1 1 1 2 3 3 2 3 5 6 3 3 3 1 1 1 1 1 1 1 3 3 3 3
4 6 6 7 7 5 6 8 7 4 4 3 3 2 1 2 2 3 3 4 4 2 2 4 4 3 3 3 2 1 1 1 1 1 2 2 2 2
3 5 6 6 5 5 5 4 4 4 4 4 3 2 1 2 1 1 1 1 1 2 3 2 3 4 2 2 2 2 1 1 1 1 2 2 3 3
5 3 3 3 3 2 2 3 3 3 3 2 3 3 2 2 1 1 1 1 1 1 1 2 3 4 3 2 2 2 1 1 1 1 1 1 2 3
7 4 4 4 5 5 4 3 3 3 3 3 3 3 3 3 2 1 1 1 2 1 1 0 1 1 1 2 1 3 2 2 1 1 1 2 3 4
5 5 5 6 5 5 5 4 4 4 3 3 3 3 3 3 2 2 2 1 1 1 1 1 1 1 1 2 2 2 2 1 1 1 2 2 3 4
4 5 6 5 5 5 5 4 4 3 3 4 3 3 4 3 3 3 3 3 3 2 1 1 2 3 3 3 2 1 2 3 2 2 2 2 3 5
6 5 5 5 5 5 5 5 4 4 4 4 4 4 4 4 4 4 4 4 3 3 3 3 3 2 1 1 0 2 2 3 4 3 2 2 2 2
6 6 5 6 6 5 5 5 4 4 5 5 4 4 4 4 5 5 4 4 3 3 3 2 1 2 1 2 3 3 2 2 2 3 4 4 2 2
6 6 6 6 5 5 5 6 6 5 5 5 5 5 5 4 4 4 4 4 3 3 2 1 1 0 1 2 2 2 3 3 2 2 3 5 7 8
Wind_Direction
161 153 146 152 151 152 149 151 147 152 199 260 337 11 75 78 70 72 67 62 59 57 56 57 56 56 56 57 56 54 54 54 55 55 54 53 52 52
145 140 138 142 142 143 147 141 139 148 163 204 212 189 102 99 85 82 77 69 63 62 62 61 59 57 57 58 58 56 55 54 54 54 54 54 53 51
147 148 153 143 137 136 131 130 129 129 139 143 83 75 83 91 84 85 82 75 69 67 66 64 62 60 58 57 58 56 55 54 53 53 53 52 51 50
164 152 157 144 134 136 135 140 141 137 141 145 118 86 84 106 97 88 86 84 78 70 67 64 64 62 59 57 58 58 56 55 52 51 51 51 51 50
170 168 168 152 151 147 141 142 142 136 129 142 139 107 92 107 93 82 78 74 80 73 67 62 64 66 64 61 61 59 58 57 54 51 50 51 51 49
168 168 169 170 171 165 155 153 142 131 127 131 131 117 111 103 110 115 79 46 51 61 71 62 60 61 62 65 63 61 61 60 56 51 48 48 48 45
154 157 168 173 176 175 166 161 151 142 138 137 142 136 149 155 171 170 149 89 31 51 60 46 49 47 39 51 60 62 62 60 55 51 50 47 43 41
151 149 153 156 161 167 168 165 160 157 163 160 165 175 194 189 168 162 155 141 248 297 110 33 55 35 13 33 52 59 58 59 55 50 50 47 41 36
155 155 158 149 142 137 141 146 161 170 169 168 175 192 190 191 171 173 182 181 201 190 132 49 21 10 359 30 52 59 61 55 53 54 55 47 41 34
157 163 164 158 156 146 135 128 137 165 182 178 189 197 193 180 175 174 167 146 104 72 141 166 260 295 5 18 37 57 65 54 52 55 54 50 43 37
158 160 163 169 168 153 142 142 142 184 165 178 186 182 173 169 158 134 135 137 184 239 183 165 183 215 339 347 3 34 58 62 65 62 58 52 43 36
155 168 175 172 168 160 156 156 167 200 142 116 109 108 122 144 156 161 165 163 173 219 200 166 169 154 286 318 359 17 41 40 50 51 45 44 37 38
173 182 189 177 174 172 167 172 182 165 139 126 106 86 84 95 115 144 166 173 181 213 189 165 169 168 180 255 316 341 20 27 30 23 18 16 15 36
185 191 186 177 176 171 167 166 158 141 130 127 122 122 123 127 99 112 129 146 173 195 181 169 173 176 170 189 246 295 332 351 12 0 360 4 1 354
184 180 172 166 163 163 165 157 147 138 141 146 164 185 186 161 125 100 93 95 79 65 151 180 174 173 173 193 202 205 243 312 345 324 338 350 344 347
161 156 151 146 142 144 147 148 146 158 162 171 172 167 138 129 134 123 123 101 65 11 35 87 149 156 176 194 193 216 211 228 304 307 306 316 328 325
143 125 124 134 143 146 146 148 152 154 163 163 161 162 164 160 172 147 140 116 137 205 330 25 72 99 111 156 183 219 218 228 248 280 250 285 296 310
143 155 167 173 180 182 179 179 181 186 187 179 175 178 183 186 189 163 137 156 181 216 226 198 81 70 50 17 231 217 226 236 244 247 207 242 282 299
158 177 185 191 193 189 188 189 194 195 185 184 189 189 186 187 183 178 168 169 199 218 225 193 165 156 220 264 290 222 205 214 220 249 234 225 257 285
186 188 195 196 193 192 194 194 190 180 180 187 189 188 187 189 193 192 190 193 201 208 221 218 215 211 219 236 250 277 232 211 213 239 253 252 265 290
198 198 195 193 193 193 193 191 187 187 187 189 193 190 189 188 197 200 199 198 197 202 218 241 250 218 165 114 239 281 292 247 227 225 234 259 286 299
198 198 197 195 194 193 189 186 187 190 190 193 196 195 193 193 198 197 194 195 201 204 219 230 150 124 152 212 244 266 286 309 296 257 250 234 223 250
201 198 196 195 193 189 187 189 192 197 197 195 194 194 191 194 198 196 195 193 189 188 188 187 163 137 217 213 234 259 275 290 298 308 291 284 258 261
Height
1554 1555 1555 1556 1557 1557 1558 1559 1560 1560 1561 1562 1562 1563 1562 1562 1562 1561 1560 1559 1558 1556 1555 1553 1552 1550 1548 1546 1544 1542 1540 1538 1536 1535 1534 1533 1532 1530
1553 1554 1555 1555 1556 1557 1557 1558 1559 1560 1560 1561 1562 1563 1563 1563 1563 1562 1561 1560 1559 1558 1557 1555 1554 1552 1550 1548 1547 1545 1543 1542 1540 1539 1537 1535 1534 1533
1552 1553 1554 1555 1555 1556 1557 1558 1558 1559 1559 1560 1561 1562 1563 1563 1563 1563 1562 1561 1560 1559 1558 1557 1556 1554 1552 1551 1549 1547 1546 1544 1543 1541 1539 1538 1536 1535
1551 1552 1553 1554 1555 1555 1556 1557 1558 1558 1559 1559 1560 1561 1562 1563 1563 1563 1562 1562 1561 1560 1559 1558 1557 1555 1554 1552 1551 1549 1548 1546 1544 1543 1541 1540 1538 1537
1550 1551 1552 1553 1554 1555 1555 1556 1557 1558 1558 1559 1560 1561 1561 1562 1562 1562 1562 1562 1561 1561 1560 1559 1558 1557 1555 1554 1552 1551 1549 1547 1546 1544 1543 1542 1540 1539
1549 1550 1551 1552 1553 1554 1554 1555 1556 1557 1557 1558 1559 1560 1561 1561 1562 1562 1562 1562 1561 1561 1560 1559 1558 1557 1556 1555 1553 1552 1550 1549 1547 1546 1544 1543 1541 1540
1548 1549 1550 1551 1552 1553 1554 1554 1555 1556 1556 1557 1558 1559 1559 1560 1560 1561 1561 1561 1561 1560 1560 1559 1558 1557 1556 1555 1554 1552 1551 1550 1548 1547 1545 1544 1542 1541
1546 1547 1548 1549 1550 1551 1552 1553 1554 1555 1555 1556 1557 1557 1558 1558 1559 1559 1560 1560 1559 1560 1559 1558 1558 1557 1556 1555 1554 1553 1551 1550 1549 1547 1546 1544 1543 1541
1545 1546 1547 1548 1549 1550 1551 1551 1552 1553 1554 1555 1556 1556 1557 1557 1558 1558 1558 1558 1558 1558 1558 1557 1557 1556 1555 1554 1553 1552 1551 1550 1549 1547 1546 1544 1543 1541
1543 1544 1546 1546 1547 1548 1549 1550 1551 1551 1552 1553 1554 1555 1555 1556 1556 1557 1557 1556 1556 1556 1556 1556 1555 1555 1554 1553 1552 1551 1550 1549 1548 1547 1545 1544 1542 1541
1541 1542 1544 1544 1545 1546 1547 1548 1549 1550 1551 1551 1552 1553 1553 1554 1554 1554 1554 1554 1554 1554 1554 1554 1553 1553 1552 1552 1551 1550 1549 1548 1547 1546 1544 1543 1542 1540
1539 1540 1541 1542 1543 1544 1545 1546 1547 1547 1548 1549 1550 1550 1551 1551 1552 1552 1552 1552 1552 1552 1552 1552 1551 1551 1550 1550 1549 1549 1548 1547 1546 1545 1543 1542 1540 1539
1536 1537 1539 1540 1541 1542 1543 1544 1544 1545 1546 1547 1547 1548 1549 1549 1549 1549 1550 1550 1550 1550 1550 1549 1549 1549 1548 1547 1547 1546 1546 1545 1544 1543 1542 1540 1539 1537
1534 1535 1536 1537 1538 1539 1540 1541 1542 1543 1543 1544 1545 1545 1546 1546 1546 1547 1547 1547 1547 1547 1547 1547 1546 1546 1545 1544 1544 1544 1543 1543 1542 1541 1539 1538 1537 1535
1531 1532 1534 1535 1536 1537 1538 1538 1539 1540 1540 1541 1542 1542 1543 1543 1543 1543 1544 1544 1543 1543 1543 1543 1543 1542 1542 1541 1541 1540 1540 1539 1539 1538 1537 1535 1534 1532
1528 1529 1530 1531 1533 1534 1534 1535 1536 1537 1537 1538 1539 1540 1540 1540 1540 1540 1540 1540 1540 1540 1540 1540 1539 1539 1538 1538 1538 1537 1536 1536 1535 1534 1533 1532 1531 1529
1524 1526 1527 1528 1529 1530 1531 1532 1533 1533 1534 1535 1536 1536 1537 1537 1537 1537 1537 1537 1537 1536 1536 1537 1536 1536 1535 1535 1534 1534 1533 1532 1532 1531 1530 1529 1528 1526
1521 1521 1523 1524 1525 1526 1527 1528 1529 1530 1531 1531 1532 1533 1533 1533 1534 1534 1534 1534 1533 1533 1533 1533 1533 1532 1532 1531 1532 1530 1530 1529 1529 1528 1526 1525 1524 1523
1516 1517 1519 1520 1521 1522 1523 1524 1525 1526 1527 1528 1528 1529 1529 1530 1530 1530 1530 1530 1530 1530 1530 1530 1529 1529 1528 1527 1527 1527 1526 1525 1525 1524 1523 1522 1520 1519
1512 1513 1514 1516 1517 1518 1519 1520 1521 1522 1523 1524 1524 1525 1525 1526 1526 1526 1526 1526 1526 1526 1526 1526 1526 1526 1525 1525 1523 1523 1523 1522 1521 1520 1519 1518 1516 1516
1507 1508 1510 1511 1513 1514 1515 1516 1517 1518 1518 1519 1520 1521 1521 1522 1522 1522 1522 1523 1523 1522 1522 1522 1522 1523 1522 1521 1520 1519 1519 1519 1518 1517 1515 1514 1512 1510
1502 1504 1505 1507 1508 1509 1510 1511 1512 1513 1514 1514 1515 1516 1517 1517 1518 1518 1518 1518 1518 1518 1518 1519 1519 1518 1518 1517 1516 1516 1515 1515 1514 1513 1512 1510 1508 1505
1497 1499 1500 1502 1503 1504 1505 1506 1507 1508 1509 1510 1511 1511 1512 1513 1513 1514 1514 1514 1514 1514 1514 1514 1514 1514 1514 1514 1513 1512 1511 1511 1510 1509 1508 1507 1505 1503